This is the latest recevied weather packets stored in our database for station/object PD2BVG. If no packets are shown the sender has not sent any weather packets the latest 10 day(s).
| Time | Temp. | Humidity | Pressure | Rain* | Wind** | Luminosity | Snow |
|---|---|---|---|---|---|---|---|
| 1787397041 | 18.89° C | 66% | 1021.3 hPa | 0 mm | - | 99 W/m² | - |
| 1787396981 | 18.89° C | 66% | 1021.2 hPa | 0 mm | - | 99 W/m² | - |
| 1787396921 | 18.89° C | 66% | 1021.3 hPa | 0 mm | - | 99 W/m² | - |
| 1787396861 | 18.89° C | 66% | 1021.2 hPa | 0 mm | - | 132 W/m² | - |
| 1787396801 | 18.89° C | 67% | 1021.2 hPa | 0 mm | - | 102 W/m² | - |
| 1787396742 | 18.89° C | 67% | 1021.2 hPa | 0 mm | - | 102 W/m² | - |
| 1787396681 | 18.89° C | 68% | 1021.3 hPa | 0 mm | - | 102 W/m² | - |
| 1787396622 | 18.89° C | 66% | 1021.2 hPa | 0 mm | - | 99 W/m² | - |
| 1787396562 | 18.89° C | 66% | 1021.2 hPa | 0 mm | - | 97 W/m² | - |
| 1787396501 | 18.89° C | 67% | 1021.2 hPa | 0 mm | - | 95 W/m² | - |
| 1787396441 | 18.89° C | 67% | 1021.2 hPa | 0 mm | - | 97 W/m² | - |
| 1787396382 | 18.89° C | 67% | 1021.2 hPa | 0 mm | - | 97 W/m² | - |
| 1787396321 | 18.89° C | 67% | 1021.2 hPa | 0 mm | - | 106 W/m² | - |
| 1787396261 | 18.89° C | 67% | 1021.2 hPa | 0 mm | - | 106 W/m² | - |
| 1787396201 | 18.89° C | 67% | 1021.2 hPa | 0 mm | - | 97 W/m² | - |
| 1787396142 | 18.89° C | 67% | 1021.2 hPa | 0 mm | - | 99 W/m² | - |
| 1787396083 | 18.89° C | 67% | 1021.1 hPa | 0 mm | - | 99 W/m² | - |
| 1787396021 | 19.44° C | 70% | 1021 hPa | 0 mm | - | 100 W/m² | - |
| 1787395962 | 19.44° C | 70% | 1021 hPa | 0 mm | - | 136 W/m² | - |
| 1787395901 | 19.44° C | 70% | 1021.1 hPa | 0 mm | - | 656 W/m² | - |
| 1787395843 | 19.44° C | 71% | 1021 hPa | 0 mm | - | 656 W/m² | - |
| 1787395783 | 19.44° C | 71% | 1021 hPa | 0 mm | - | 721 W/m² | - |
| 1787395722 | 18.89° C | 70% | 1021 hPa | 0 mm | - | 726 W/m² | - |
| 1787395660 | 18.89° C | 70% | 1020.9 hPa | 0 mm | - | 726 W/m² | - |
| 1787395601 | 18.89° C | 70% | 1021.1 hPa | 0 mm | - | 726 W/m² | - |
* Rain latest hour (hover to see other rain measurements)
** Current wind speed in m/s (hover to see current wind gust speed)